TimeEST,TemperatureF,Dew PointF,Humidity,Sea Level PressureIn,VisibilityMPH,Wind Direction,Wind SpeedMPH,Gust SpeedMPH,PrecipitationIn,Events,Conditions,WindDirDegrees,DateUTC
12:15 AM,21.2,13.1,71,29.88,10.0,WNW,5.8,-,N/A,,Overcast,290,2014-01-18 05:15:00
12:35 AM,20.5,11.5,68,29.88,10.0,WNW,5.8,-,N/A,,Mostly Cloudy,290,2014-01-18 05:35:00
12:55 AM,19.8,10.6,68,29.88,10.0,NW,5.8,-,N/A,,Overcast,320,2014-01-18 05:55:00
1:15 AM,19.2,10.2,68,29.87,10.0,WNW,4.6,-,N/A,,Overcast,300,2014-01-18 06:15:00
1:35 AM,18.5,10.2,70,29.87,10.0,WNW,3.5,-,N/A,,Overcast,290,2014-01-18 06:35:00
1:55 AM,18.0,9.7,70,29.87,10.0,West,3.5,-,N/A,,Mostly Cloudy,270,2014-01-18 06:55:00
2:15 AM,16.7,9.5,73,29.86,10.0,NNW,3.5,-,N/A,,Scattered Clouds,340,2014-01-18 07:15:00
2:35 AM,16.7,9.7,74,29.87,10.0,West,3.5,-,N/A,,Mostly Cloudy,280,2014-01-18 07:35:00
2:55 AM,16.2,7.0,67,29.88,10.0,WNW,6.9,-,N/A,,Mostly Cloudy,300,2014-01-18 07:55:00
3:15 AM,15.8,7.3,69,29.88,10.0,NW,8.1,-,N/A,,Mostly Cloudy,310,2014-01-18 08:15:00
3:35 AM,15.8,7.2,69,29.88,10.0,WNW,5.8,-,N/A,,Overcast,300,2014-01-18 08:35:00
3:55 AM,15.8,6.6,67,29.87,10.0,WNW,4.6,-,N/A,,Overcast,300,2014-01-18 08:55:00
4:15 AM,15.6,6.4,67,29.87,10.0,West,3.5,-,N/A,,Overcast,280,2014-01-18 09:15:00
4:35 AM,15.6,6.1,66,29.87,10.0,NW,8.1,-,N/A,,Overcast,310,2014-01-18 09:35:00
4:55 AM,14.9,5.7,67,29.86,10.0,WNW,11.5,17.3,N/A,,Overcast,300,2014-01-18 09:55:00
5:15 AM,14.5,4.8,65,29.87,10.0,WNW,8.1,19.6,N/A,,Overcast,300,2014-01-18 10:15:00
5:35 AM,14.0,4.8,67,29.87,10.0,WNW,6.9,-,N/A,,Overcast,290,2014-01-18 10:35:00
5:55 AM,13.5,4.6,68,29.88,10.0,WNW,6.9,-,N/A,,Mostly Cloudy,300,2014-01-18 10:55:00
6:15 AM,13.1,4.1,67,29.89,10.0,WNW,5.8,-,N/A,,Mostly Cloudy,290,2014-01-18 11:15:00
6:35 AM,12.9,4.5,69,29.90,7.0,WNW,13.8,19.6,N/A,,Overcast,290,2014-01-18 11:35:00
6:55 AM,12.0,1.6,63,29.90,10.0,NW,9.2,16.1,N/A,,Overcast,310,2014-01-18 11:55:00
7:15 AM,11.7,1.6,64,29.91,10.0,WNW,5.8,-,N/A,,Overcast,290,2014-01-18 12:15:00
7:35 AM,11.3,2.1,67,29.91,10.0,West,10.4,-,N/A,,Overcast,280,2014-01-18 12:35:00
7:55 AM,11.1,2.8,69,29.91,7.0,WNW,6.9,-,N/A,Snow,Light Snow,290,2014-01-18 12:55:00
8:15 AM,10.9,2.7,69,29.92,7.0,WNW,6.9,-,N/A,Snow,Light Snow,290,2014-01-18 13:15:00
8:35 AM,11.3,2.3,67,29.92,10.0,WNW,6.9,-,N/A,Snow,Light Snow,300,2014-01-18 13:35:00
8:55 AM,11.5,3.0,69,29.93,7.0,WNW,5.8,-,N/A,Snow,Light Snow,300,2014-01-18 13:55:00
9:15 AM,12.9,3.2,65,29.93,10.0,WNW,6.9,-,N/A,,Overcast,300,2014-01-18 14:15:00
9:35 AM,13.1,3.2,65,29.94,10.0,NW,5.8,-,N/A,,Overcast,310,2014-01-18 14:35:00
9:55 AM,14.4,4.1,64,29.94,10.0,WNW,6.9,-,N/A,,Overcast,290,2014-01-18 14:55:00
10:15 AM,14.0,4.5,66,29.95,10.0,WNW,5.8,-,N/A,,Overcast,290,2014-01-18 15:15:00
10:35 AM,14.4,4.1,64,29.95,10.0,WNW,6.9,-,N/A,,Overcast,290,2014-01-18 15:35:00
10:55 AM,14.9,4.1,62,29.95,10.0,WNW,6.9,-,N/A,,Overcast,290,2014-01-18 15:55:00
11:15 AM,16.0,5.0,62,29.95,10.0,WNW,5.8,-,N/A,,Overcast,290,2014-01-18 16:15:00
11:35 AM,16.5,5.2,61,29.94,10.0,West,8.1,-,N/A,,Overcast,280,2014-01-18 16:35:00
11:55 AM,16.9,4.6,59,29.94,10.0,WNW,8.1,-,N/A,,Overcast,300,2014-01-18 16:55:00
12:15 PM,17.2,5.0,59,29.94,10.0,West,6.9,-,N/A,,Overcast,280,2014-01-18 17:15:00
12:35 PM,17.4,5.4,59,29.93,10.0,WNW,4.6,-,N/A,,Overcast,300,2014-01-18 17:35:00
12:55 PM,18.7,5.4,56,29.92,10.0,West,10.4,19.6,N/A,,Overcast,270,2014-01-18 17:55:00
1:15 PM,20.1,5.7,54,29.92,10.0,WNW,6.9,-,N/A,,Overcast,300,2014-01-18 18:15:00
1:35 PM,19.9,5.4,53,29.92,10.0,WNW,6.9,-,N/A,,Overcast,290,2014-01-18 18:35:00
1:55 PM,19.8,5.7,55,29.91,10.0,WNW,8.1,-,N/A,,Mostly Cloudy,300,2014-01-18 18:55:00
2:15 PM,18.3,5.2,57,29.91,10.0,NW,6.9,-,N/A,,Mostly Cloudy,320,2014-01-18 19:15:00
2:35 PM,19.6,5.2,54,29.91,10.0,WNW,8.1,17.3,N/A,,Scattered Clouds,290,2014-01-18 19:35:00
2:55 PM,21.2,5.2,50,29.91,10.0,West,9.2,18.4,N/A,,Clear,270,2014-01-18 19:55:00
3:15 PM,21.2,5.7,51,29.90,10.0,West,5.8,-,N/A,,Clear,280,2014-01-18 20:15:00
3:35 PM,20.5,5.5,53,29.90,10.0,West,5.8,-,N/A,,Clear,280,2014-01-18 20:35:00
3:55 PM,21.0,6.1,53,29.90,10.0,Calm,Calm,-,N/A,,Clear,0,2014-01-18 20:55:00
4:15 PM,21.6,6.6,53,29.91,10.0,WSW,8.1,-,N/A,,Clear,240,2014-01-18 21:15:00
4:35 PM,21.6,6.8,53,29.92,10.0,SW,4.6,-,N/A,,Clear,220,2014-01-18 21:35:00
4:55 PM,20.8,7.0,55,29.90,10.0,SW,4.6,-,N/A,,Clear,230,2014-01-18 21:55:00
5:15 PM,19.6,7.3,59,29.90,10.0,SW,3.5,-,N/A,,Clear,220,2014-01-18 22:15:00
5:35 PM,18.9,7.2,60,29.90,10.0,SW,3.5,-,N/A,,Clear,220,2014-01-18 22:35:00
5:55 PM,18.1,7.3,63,29.90,10.0,Calm,Calm,-,N/A,,Clear,0,2014-01-18 22:55:00
6:15 PM,15.4,7.2,70,29.89,10.0,Calm,Calm,-,N/A,,Clear,0,2014-01-18 23:15:00
6:35 PM,17.1,7.5,66,29.89,10.0,Calm,Calm,-,N/A,,Clear,0,2014-01-18 23:35:00
6:55 PM,16.3,6.8,66,29.89,10.0,Calm,Calm,-,N/A,,Clear,0,2014-01-18 23:55:00
7:15 PM,16.5,7.5,68,29.89,10.0,Calm,Calm,-,N/A,,Clear,0,2014-01-19 00:15:00
7:35 PM,17.1,7.2,65,29.89,10.0,Calm,Calm,-,N/A,,Clear,0,2014-01-19 00:35:00
7:55 PM,16.3,7.9,69,29.88,10.0,Calm,Calm,-,N/A,,Clear,0,2014-01-19 00:55:00
8:15 PM,15.8,7.5,70,29.89,10.0,Calm,Calm,-,N/A,,Clear,0,2014-01-19 01:15:00
8:35 PM,14.7,8.2,75,29.88,10.0,Calm,Calm,-,N/A,,Mostly Cloudy,0,2014-01-19 01:35:00
8:55 PM,15.1,9.5,79,29.88,10.0,NE,3.5,-,N/A,,Overcast,50,2014-01-19 01:55:00
9:15 PM,15.8,9.1,75,29.87,10.0,North,4.6,-,N/A,,Scattered Clouds,10,2014-01-19 02:15:00
9:35 PM,17.4,9.0,69,29.89,10.0,North,4.6,-,N/A,,Mostly Cloudy,360,2014-01-19 02:35:00
9:55 PM,17.6,10.4,73,29.89,10.0,Calm,Calm,-,N/A,,Overcast,0,2014-01-19 02:55:00
10:15 PM,17.8,10.2,72,29.90,10.0,Calm,Calm,-,N/A,,Overcast,0,2014-01-19 03:15:00
10:35 PM,18.0,10.9,74,29.89,2.0,Calm,Calm,-,N/A,Snow,Light Snow,0,2014-01-19 03:35:00
10:55 PM,17.4,12.6,81,29.89,1.2,Calm,Calm,-,N/A,Snow,Snow,0,2014-01-19 03:55:00
11:15 PM,17.2,13.6,86,29.88,1.0,Calm,Calm,-,N/A,Snow,Snow,0,2014-01-19 04:15:00
11:35 PM,17.1,14.0,88,29.86,4.0,NNE,3.5,-,N/A,Snow,Light Snow,20,2014-01-19 04:35:00
11:55 PM,17.2,14.5,89,29.85,4.0,Calm,Calm,-,N/A,Snow,Light Snow,0,2014-01-19 04:55:00